Total_Precipitation_Accumulation
1.63 1.74 1.74 1.72 1.77 1.79 1.67 1.49 1.41 1.40 1.45 1.52 1.63 1.71 1.68 1.68 1.77 1.82 1.80 2.01 2.11 2.11 2.08 2.06 1.96 1.98 1.97 1.91 1.98 2.12 2.28 2.31 2.01 1.65 1.61 1.60 1.57 1.45 1.41 1.31 1.20 1.14 0.96
1.54 1.73 1.82 1.81 1.83 1.78 1.59 1.45 1.43 1.45 1.51 1.55 1.63 1.66 1.57 1.57 1.71 1.74 1.80 1.95 1.99 1.94 1.89 1.87 1.69 1.73 1.77 1.70 1.81 1.89 1.97 2.16 2.10 1.87 1.87 1.89 1.85 1.73 1.67 1.61 1.45 1.24 1.03
1.52 1.84 1.99 1.99 1.90 1.81 1.64 1.45 1.39 1.43 1.51 1.55 1.56 1.57 1.60 1.69 1.75 1.72 1.69 1.66 1.63 1.67 1.82 1.89 1.70 1.67 1.60 1.61 1.65 1.63 1.68 1.82 1.94 1.89 1.88 1.96 1.92 1.89 1.78 1.61 1.50 1.36 1.10
1.41 1.60 1.69 1.60 1.56 1.59 1.52 1.40 1.33 1.34 1.42 1.51 1.56 1.63 1.68 1.71 1.70 1.71 1.71 1.62 1.53 1.53 1.61 1.64 1.60 1.60 1.56 1.64 1.59 1.57 1.58 1.69 1.79 1.81 1.83 1.97 1.99 1.91 1.90 1.72 1.70 1.58 1.41
1.12 1.21 1.33 1.34 1.34 1.34 1.37 1.38 1.34 1.42 1.47 1.55 1.59 1.61 1.56 1.54 1.44 1.42 1.44 1.40 1.43 1.36 1.30 1.29 1.31 1.40 1.41 1.41 1.32 1.45 1.58 1.64 1.68 1.71 1.74 1.91 2.08 2.13 1.96 1.87 1.93 1.88 1.71
1.00 1.11 1.30 1.42 1.45 1.40 1.36 1.39 1.41 1.43 1.48 1.54 1.53 1.58 1.54 1.29 1.37 1.37 1.37 1.48 1.55 1.52 1.44 1.34 1.26 1.23 1.17 1.12 1.09 1.17 1.37 1.51 1.57 1.64 1.65 1.78 1.98 2.18 2.23 2.17 2.07 2.00 1.95
1.12 1.25 1.42 1.46 1.50 1.50 1.42 1.48 1.46 1.53 1.61 1.57 1.52 1.50 1.51 1.54 1.56 1.40 1.27 1.27 1.36 1.40 1.40 1.38 1.23 1.12 1.20 1.14 1.14 1.12 1.12 1.22 1.31 1.45 1.54 1.58 1.73 1.95 2.16 2.12 2.20 2.24 2.23
1.34 1.52 1.60 1.65 1.61 1.60 1.61 1.63 1.68 1.76 1.78 1.73 1.65 1.55 1.58 1.59 1.53 1.32 1.25 1.20 1.25 1.29 1.32 1.33 1.31 1.23 1.23 1.30 1.31 1.25 1.15 1.12 1.16 1.18 1.24 1.36 1.57 1.82 2.09 2.09 2.11 2.20 2.26
1.42 1.56 1.70 1.78 1.77 1.79 1.81 1.76 1.80 1.89 1.86 1.79 1.75 1.76 1.71 1.77 1.77 1.55 1.47 1.37 1.41 1.43 1.43 1.40 1.38 1.30 1.36 1.30 1.25 1.24 1.19 1.14 1.14 1.18 1.17 1.29 1.50 1.60 1.79 1.90 1.90 1.95 1.91
1.45 1.56 1.71 1.87 1.90 1.94 2.09 2.15 2.08 2.03 1.94 1.98 1.97 1.96 1.95 1.99 2.15 1.91 1.71 1.58 1.63 1.63 1.69 1.62 1.54 1.42 1.41 1.31 1.18 1.19 1.17 1.16 1.24 1.23 1.20 1.21 1.26 1.43 1.59 1.66 1.81 1.93 1.84
1.46 1.59 1.79 1.94 2.02 2.08 2.22 2.31 2.29 2.26 2.24 2.18 2.12 2.14 2.14 2.16 2.27 2.00 1.80 1.71 1.78 1.83 1.79 1.69 1.68 1.61 1.41 1.37 1.28 1.24 1.28 1.29 1.33 1.35 1.31 1.30 1.32 1.39 1.46 1.54 1.72 1.88 1.89
1.40 1.51 1.63 1.78 1.82 1.90 2.12 2.22 2.29 2.32 2.29 2.20 2.14 2.03 2.05 2.05 2.01 1.88 1.75 1.66 1.74 1.87 1.92 1.81 1.74 1.63 1.41 1.33 1.23 1.24 1.25 1.16 1.13 1.25 1.28 1.27 1.26 1.25 1.30 1.44 1.59 1.66 1.70
1.46 1.58 1.71 1.78 1.85 1.94 1.99 1.98 2.06 2.15 2.15 2.06 2.05 1.98 1.95 1.97 1.95 1.72 1.50 1.43 1.46 1.52 1.68 1.75 1.61 1.46 1.27 1.12 1.09 1.07 0.98 0.88 0.92 0.99 1.01 1.00 0.99 1.03 1.16 1.32 1.48 1.54 1.50
1.54 1.58 1.65 1.75 1.78 1.81 1.92 2.00 2.06 2.17 2.27 2.18 2.07 1.98 1.93 1.89 1.78 1.60 1.41 1.32 1.37 1.45 1.54 1.59 1.44 1.30 1.13 1.05 0.99 0.90 0.85 0.89 0.93 0.94 0.95 0.99 1.03 1.08 1.13 1.18 1.28 1.38 1.40
1.40 1.46 1.51 1.54 1.62 1.69 1.74 1.82 1.84 1.92 1.92 1.91 1.85 1.83 1.81 1.76 1.60 1.51 1.38 1.27 1.31 1.41 1.47 1.53 1.42 1.36 1.29 1.20 1.13 1.06 1.04 1.05 1.00 0.98 1.03 1.04 1.04 1.08 1.09 1.11 1.23 1.24 1.19
1.47 1.50 1.44 1.41 1.46 1.50 1.53 1.52 1.51 1.44 1.41 1.38 1.39 1.39 1.37 1.31 1.23 1.11 1.07 1.06 1.09 1.23 1.30 1.46 1.52 1.49 1.44 1.37 1.26 1.15 1.11 1.07 1.02 1.03 1.06 1.07 1.07 1.08 1.14 1.12 1.17 1.20 1.12
1.36 1.40 1.37 1.36 1.41 1.42 1.43 1.46 1.49 1.41 1.30 1.22 1.19 1.18 1.20 1.17 1.11 1.08 1.08 1.11 1.10 1.15 1.20 1.36 1.43 1.38 1.33 1.28 1.16 1.05 1.00 1.02 1.09 1.10 1.12 1.11 1.15 1.17 1.22 1.20 1.16 1.21 1.17
1.16 1.22 1.30 1.38 1.42 1.48 1.51 1.55 1.63 1.70 1.63 1.45 1.28 1.19 1.11 1.05 0.99 0.99 1.01 1.01 1.01 1.03 1.13 1.25 1.27 1.20 1.17 1.13 1.10 1.04 1.02 1.08 1.17 1.15 1.15 1.15 1.16 1.17 1.20 1.21 1.17 1.14 1.14
1.06 1.07 1.09 1.16 1.23 1.31 1.33 1.39 1.48 1.57 1.61 1.51 1.36 1.22 1.09 1.01 0.93 0.90 0.88 0.86 0.92 1.02 1.15 1.18 1.20 1.19 1.10 1.06 1.05 1.01 0.99 1.02 1.10 1.15 1.14 1.15 1.15 1.16 1.15 1.13 1.16 1.15 1.06
1.03 1.02 1.01 1.01 1.02 1.02 1.05 1.12 1.21 1.31 1.37 1.31 1.21 1.09 0.97 0.92 0.82 0.76 0.73 0.73 0.81 0.89 0.97 1.03 1.05 1.02 0.95 0.96 0.98 0.95 0.93 0.99 1.09 1.13 1.10 1.13 1.18 1.17 1.09 1.06 1.08 1.11 1.04
1.01 0.97 0.95 0.94 0.92 0.92 0.94 0.98 1.02 1.06 1.12 1.07 0.99 0.86 0.77 0.71 0.63 0.59 0.60 0.67 0.76 0.85 0.92 0.96 0.95 0.90 0.88 0.92 0.96 0.97 0.94 0.99 1.07 1.09 1.09 1.14 1.18 1.18 1.11 1.07 1.05 1.07 1.07
0.94 0.85 0.79 0.77 0.81 0.84 0.86 0.92 0.97 0.97 0.94 0.90 0.82 0.67 0.61 0.57 0.51 0.49 0.52 0.58 0.65 0.76 0.79 0.79 0.82 0.83 0.80 0.82 0.88 0.94 0.97 1.02 1.10 1.12 1.09 1.11 1.15 1.16 1.18 1.15 1.14 1.11 1.11
0.97 0.85 0.76 0.71 0.71 0.72 0.75 0.83 0.89 0.87 0.79 0.73 0.67 0.61 0.60 0.61 0.52 0.49 0.53 0.61 0.68 0.69 0.67 0.67 0.72 0.77 0.78 0.80 0.81 0.89 0.96 1.01 1.05 1.06 1.11 1.15 1.14 1.11 1.12 1.08 1.07 1.08 1.08
0.94 0.88 0.79 0.68 0.68 0.72 0.75 0.79 0.81 0.80 0.74 0.69 0.65 0.62 0.62 0.65 0.60 0.57 0.62 0.72 0.71 0.64 0.62 0.65 0.68 0.71 0.74 0.80 0.80 0.81 0.86 0.92 0.92 0.92 0.93 0.98 1.00 1.02 1.04 1.02 1.02 1.01 1.04
0.91 0.85 0.76 0.65 0.61 0.65 0.69 0.74 0.78 0.78 0.73 0.66 0.64 0.65 0.68 0.71 0.67 0.66 0.67 0.67 0.64 0.59 0.55 0.60 0.65 0.67 0.69 0.71 0.74 0.74 0.74 0.72 0.72 0.76 0.79 0.83 0.89 0.97 1.03 1.03 1.02 1.01 1.01
0.80 0.74 0.67 0.60 0.54 0.54 0.60 0.68 0.69 0.69 0.66 0.62 0.61 0.62 0.61 0.62 0.61 0.56 0.53 0.52 0.52 0.51 0.52 0.56 0.62 0.63 0.67 0.68 0.61 0.58 0.55 0.50 0.53 0.62 0.65 0.72 0.84 0.92 0.96 1.01 1.00 1.01 0.99